Location: Grasslands National Park East Block
(49.0708°N, 106.5295°W)
Time: 02:25:48
(UTC-06:00)

Gurwin Techsat 1B - Visible Passes

Search period start: 17 October 2019 00:00
Search period end: 27 October 2019 00:00
Orbit: 811 x 814 km, 98.7° (Epoch: 16 October)

Date Brightness Start Highest point End Pass type
(mag) Time Alt. Az. Time Alt. Az. Time Alt. Az.
17 Oct 11.0 03:12:24 10° NNE 03:13:34 17° NNE 03:13:34 17° NNE visible
17 Oct 10.7 04:53:32 10° NNW 04:54:47 14° NNW 04:54:47 14° NNW visible
18 Oct 11.3 02:49:36 10° NNE 02:50:20 14° NNE 02:50:20 14° NNE visible
18 Oct 10.7 04:30:09 10° N 04:31:31 16° NNW 04:31:31 16° NNW visible
19 Oct 11.6 02:26:56 10° NNE 02:27:05 11° NNE 02:27:05 11° NNE visible
19 Oct 10.7 04:06:57 10° N 04:08:17 17° N 04:08:17 17° N visible
20 Oct 10.9 03:43:53 10° N 03:45:02 17° N 03:45:02 17° N visible
21 Oct 11.1 03:20:56 10° NNE 03:21:48 15° NNE 03:21:48 15° NNE visible
21 Oct 10.8 05:02:20 10° NNW 05:02:59 12° NNW 05:02:59 12° NNW visible
22 Oct 11.4 02:58:05 10° NNE 02:58:33 12° NNE 02:58:33 12° NNE visible
22 Oct 10.8 04:38:50 10° N 04:39:44 14° NNW 04:39:44 14° NNW visible
23 Oct 10.9 04:15:35 10° N 04:16:29 14° N 04:16:29 14° N visible
24 Oct 11.0 03:52:28 10° N 03:53:15 14° N 03:53:15 14° N visible
25 Oct 11.2 03:29:28 10° N 03:30:00 13° N 03:30:00 13° N visible
26 Oct 11.5 03:06:36 10° NNE 03:06:45 11° NNE 03:06:45 11° NNE visible
26 Oct 11.0 04:47:34 10° NNW 04:47:57 11° NNW 04:47:57 11° NNW visible
